Terminal Aerodrome Forecast
Issued by NWS Aberdeen, SD

Home | Current Version | Previous Version | Text Only | Print | Product List | Glossary On
Versions: 1 2 3 4 5 6 7 8 9 10 11 12 13 14 15 16 17 18 19 20 21 22 23 24 25 26 27 28 29 30 31 32 33 34 35 36 37 38 39 40 41 42 43 44 45 46 47 48 49 50
623
FTUS43 KABR 231520 AAC
TAFABR
TAF AMD
KABR 231520Z 2315/2412 05014KT P6SM SCT012 BKN150
     FM231800 10009KT P6SM BKN015 BKN070
     FM232200 17011KT P6SM SCT020 BKN200
     FM240200 12010KT P6SM BKN200=

USA.gov is the U.S. government's official web portal to all federal, state and local government web resources and services.